Weather Service Report


569 
ASUS41 KCTP 281510
RWRCTP

REGIONAL WEATHER ROUNDUP
NATIONAL WEATHER SERVICE STATE COLLEGE PA
1100 AM EDT TUE JUN 28 2016

Note: "fair" indicates few or no clouds below 12,000 feet with no 
significant weather and/or obstructions to visibility.

* = STATION THAT DOES NOT REPORT PRECIPITATION /E.G. RAIN...SNOW...ETC/
    THUNDER OR FOG.

PAZ002>004-007>009-013>016-020>023-029>032-281600-
WESTERN PENNSYLVANIA
  
CITY           SKY/WX    TMP DP  RH WIND       PRES   REMARKS
ERIE           CLOUDY    68  56  65 W10       30.00S                  
MEADVILLE      PTSUNNY   69  56  62 NW10      30.01S                  
FRANKLIN*      MOSUNNY   73  57  56 NW7       30.01S                  
NEW CASTLE     FAIR      74  61  63 W6        30.00S                  
BEAVER COUNTY  MOSUNNY   75  63  64 CALM      30.00S                  
BUTLER*        PTSUNNY   75  63  64 NW6       30.00F                  
PITTSBURGH INT PTSUNNY   77  59  53 NW7       29.98F                  
PITTSBURGH     MOSUNNY   78  63  59 MISG      29.97F                  
INDIANA*       PTSUNNY   75  66  73 SW9G15    30.00F                  
LATROBE        PTSUNNY   75  68  78 SW13      29.98F                  
WASHINGTON CO* MOSUNNY   77  64  65 W5        29.99S                  
$$

PAZ004>006-010>012-017>019-024>028-033>037-041-042-045-046-049>053-281600-
CENTRAL PENNSYLVANIA
  
CITY           SKY/WX    TMP DP  RH WIND       PRES   REMARKS
BRADFORD       PTSUNNY   72  57  59 W8        29.98F                  
DUBOIS         MOSUNNY   75  61  61 SW8       29.97F                  
CLEARFIELD     MOSUNNY   78  65  63 SW6       29.96F                  
JOHNSTOWN      SUNNY     74  61  63 SW8       30.00F                  
ALTOONA        PTSUNNY   78  62  57 W9        29.97F                  
STATE COLLEGE  CLOUDY    77  66  69 W6        29.95F                  
WILLIAMSPORT   MOSUNNY   82  67  60 VRB3      29.90F                  
SELINSGROVE    NOT AVBL                                               
FT INDIANTOWN  CLOUDY    76  68  76 CALM      29.95S                  
CAPITAL CITY   NOT AVBL                                               
HARRISBURG     NOT AVBL                                               
YORK           NOT AVBL                                               
$$

PAZ038>040-043-044-047-048-054-055-060>062-067>071-281600-
EASTERN PENNSYLVANIA
  
CITY           SKY/WX    TMP DP  RH WIND       PRES   REMARKS
SCRANTON       NOT AVBL                                               
MOUNT POCONO   CLOUDY    69  65  86 S5        30.01R                  
ALLENTOWN      CLOUDY    76  68  76 CALM      29.95F                  
QUAKERTOWN*    CLOUDY    73  72  94 CALM      29.97S                  
READING        NOT AVBL                                               
LANCASTER      NOT AVBL                                               
COATESVILLE    FOG       72  72 100 CALM      29.98S VSB 1/2          
POTTSTOWN      CLOUDY    73  70  90 CALM      29.97S FOG              
BLUE BELL      CLOUDY    72  70  94 CALM      29.94F                  
DOYLESTOWN     NOT AVBL                                               
WILLOW GROVE   NOT AVBL                                               
NORTH PHILA    NOT AVBL                                               
PHILADELPHIA   CLOUDY    75  72  90 S3        29.95S                  
$$
  

Return to Home page


Western Regional Climate Center, wrcc@dri.edu